Weather in Perha

Ukraine / Zhytomyr Region     51°23′53″N   27°53′40″E
temp.,
°C
wind,
m/s
gust,
m/s
humid.,
%
clouds,
%
prec.,
mm/h
press.,
hPa
HPBL,
m
15 may, sat
sat1500:00+12s2498100 2.6 1005126
03:00+12ssw2698100 4.5 1005180
06:00+12sw2696100 0.6 1006209
09:00+14sw358490 0.6 1007442
12:00+18sw355956 0.0 10081337
15:00+17sw456699 0.9 10081126
18:00+17wsw4467100 0.1 10091008
21:00+14wsw2584100 0.2 1010161
16 may, sun
sun1600:00+11sw22953 0.0 101118
03:00+10ssw23960 0.0 101156
06:00+9ssw22965 0.0 101244
09:00+16s246632 0.0 1012556
12:00+20sse355099 0.0 10111604
15:00+22sse454878 0.0 10102021
18:00+20sse4666100 0.3 1009941
21:00+15sse31088100 1.0 1009276
17 may, mon
mon1700:00+13se31191100 0.5 1008251
03:00+13sse3996100 1.6 1008227
06:00+12s2597100 1.0 1008165
09:00+15w2287100 1.1 1008486
12:00+17nw2277100 0.1 1007786
15:00+18n2271100 0.3 1006830
18:00+17nnw1280100 2.3 1005319
21:00+14nne1193100 2.9 100413
18 may, tue
tue1800:00+12ne229685 0.0 100320
03:00+11wnw119793 0.0 100310
06:00+11w1197100 0.0 100212
09:00+14w3584100 0.0 1002455
12:00+18wnw4568100 0.8 10021221
15:00+14wnw698290 2.1 1004721
18:00+15wnw4976100 0.4 10031056
21:00+13wnw41082100 0.5 1005683
19 may, wed
wed1900:00+11w41187100 0.0 1006537
03:00+9w41192100 0.0 1007456
06:00+9w41096100 0.0 1008432
09:00+11w5881100 0.0 1009684
12:00+13w5771100 0.0 10101005
15:00+15wnw59586 0.1 10101389
18:00+14wnw486411 0.1 1010858
21:00+10w37852 0.3 1012148